Wind_Speed
39 40 39 38 39 39 39 39 38 37 37 38 38 38 37 37 37 36 35 35 34 33 32 32 32 32 31 31 31 30 30 31 31 31 31 31 32 33 33 34 35 36 37 37
41 41 39 40 40 40 39 39 38 38 38 39 39 39 38 38 37 37 37 36 35 34 34 34 33 33 32 32 31 31 30 31 32 32 32 31 31 32 33 34 34 36 37 38
42 41 41 41 42 41 41 40 39 39 39 40 41 40 39 38 38 38 37 37 37 36 35 34 34 34 33 32 32 32 31 32 32 33 32 32 32 33 34 34 35 36 37 38
43 42 42 42 42 42 42 41 41 41 41 41 42 43 39 39 38 38 38 38 37 37 36 35 35 34 34 33 33 33 33 33 33 33 34 33 33 33 35 35 36 37 37 38
44 44 44 44 43 43 43 42 42 42 43 43 42 44 41 39 38 38 38 38 37 37 37 36 35 35 35 34 34 34 34 34 34 34 34 34 34 34 35 37 38 37 38 38
44 44 45 45 44 44 43 43 43 44 44 46 42 44 43 40 38 37 37 37 37 37 37 37 36 36 36 36 35 35 34 35 35 35 35 35 34 35 36 37 39 39 38 39
44 45 46 45 45 45 45 44 44 45 46 46 43 45 44 40 39 38 37 37 38 38 38 37 38 38 38 37 36 36 36 36 36 36 36 35 35 36 37 38 38 39 39 39
43 44 45 45 46 46 45 45 46 47 48 47 46 45 42 40 40 39 38 38 38 39 39 38 39 39 39 38 38 38 37 37 36 36 36 36 36 36 37 38 39 39 39 40
43 44 45 46 46 46 46 46 46 47 48 49 48 46 42 40 40 39 38 38 39 39 39 39 40 40 40 40 39 39 39 38 38 37 37 37 38 38 38 39 39 39 40 41
41 43 44 45 46 46 46 45 44 46 48 49 49 47 43 40 40 40 39 38 39 40 40 40 41 41 41 41 41 41 41 40 39 39 39 39 38 38 39 40 40 40 41 42
39 41 42 43 43 43 44 45 46 47 48 49 50 48 45 42 41 40 39 39 39 40 41 41 41 42 42 42 41 41 41 41 41 40 40 40 39 39 39 40 41 41 42 42
37 39 40 40 41 42 43 44 45 47 48 49 50 49 45 44 42 41 40 40 40 40 41 42 42 42 42 42 42 42 42 41 41 40 40 40 40 40 40 40 42 42 43 43
38 39 40 40 41 41 42 42 44 46 47 48 49 47 44 43 42 41 41 40 39 40 41 42 42 42 42 42 42 42 42 42 41 41 40 40 41 41 41 41 41 43 44 45
39 40 41 40 40 40 41 41 42 44 46 46 46 45 43 42 42 41 41 41 41 40 41 42 42 42 42 42 42 42 42 41 41 41 41 41 42 41 42 42 43 44 45 46
39 40 39 39 39 41 41 41 42 44 45 47 44 43 41 41 41 41 41 41 41 41 41 42 43 42 42 42 42 42 42 42 42 42 42 42 43 43 43 42 43 44 46 46
37 38 38 37 37 40 42 41 41 43 45 46 46 44 41 41 42 42 41 41 42 41 41 42 42 42 42 42 42 43 43 43 43 43 43 43 44 44 44 43 42 43 44 44
35 36 37 37 37 39 40 39 40 40 41 43 44 43 43 42 42 42 42 42 42 42 41 42 42 42 41 42 42 42 44 44 44 45 45 44 44 44 43 43 43 44 45 45
34 34 35 36 37 39 37 37 39 39 39 41 41 41 43 43 42 42 42 42 42 42 42 41 42 43 43 43 43 43 43 44 45 45 46 45 45 45 44 43 43 43 44 44
33 33 34 35 36 36 34 34 36 38 38 38 39 40 42 42 42 41 41 41 42 42 43 42 42 43 43 43 42 42 42 43 43 44 46 46 46 46 46 45 45 45 44 45
31 32 33 34 34 34 32 32 33 36 37 36 37 37 39 41 42 40 40 40 40 41 42 42 42 43 42 42 42 42 42 43 43 43 44 45 46 47 47 47 46 45 44 45
28 29 30 31 32 32 31 30 30 32 33 33 35 36 37 39 40 39 39 38 39 39 40 41 41 41 42 42 41 42 42 42 43 44 44 44 45 46 47 47 47 46 46 45
25 26 27 27 29 29 28 28 29 29 30 31 32 33 34 36 37 37 38 38 38 38 39 40 40 41 41 41 41 40 40 41 42 43 44 43 43 44 45 46 46 46 46 45
24 25 25 26 27 26 26 27 28 28 29 29 30 31 33 33 34 36 37 37 38 38 39 39 39 40 40 40 41 41 40 40 41 42 43 42 43 43 44 44 44 45 44 43
22 23 24 24 25 25 26 26 26 28 29 29 29 30 31 32 33 34 36 36 37 36 37 38 38 38 39 40 40 40 40 40 40 40 41 41 42 42 42 42 42 43 43 44
21 22 22 23 23 24 24 24 25 26 27 28 28 29 30 31 32 32 34 35 35 35 35 35 35 35 36 37 39 39 39 39 40 40 41 41 41 40 40 39 40 41 42 43
20 21 22 23 23 24 24 25 25 25 25 26 26 27 28 29 29 30 30 31 31 32 33 33 34 33 34 35 35 36 37 37 38 38 39 39 39 39 39 39 39 40 41 43
Wind_Direction
256 256 257 258 258 258 258 258 258 258 257 256 255 254 254 254 254 254 254 255 256 258 260 261 261 261 261 259 259 259 257 254 253 252 251 250 247 245 243 243 244 244 243 243
255 255 257 257 257 257 257 257 257 258 257 256 255 254 254 254 254 254 255 255 255 257 259 261 261 262 261 260 259 258 257 256 256 254 251 251 249 247 244 243 244 245 244 243
255 256 255 255 256 256 256 257 257 258 258 258 257 254 253 254 255 255 255 255 256 256 258 260 261 261 260 259 258 258 258 258 257 255 253 252 249 248 247 246 246 245 245 244
255 255 254 254 255 256 256 257 257 257 258 258 258 258 253 255 255 255 256 256 256 256 256 259 260 259 259 258 257 257 258 257 257 256 255 254 252 249 248 246 246 247 247 248
256 254 253 254 254 255 256 256 257 257 258 258 258 259 256 255 255 255 256 256 256 256 256 257 258 257 257 257 256 256 257 257 258 258 258 255 253 250 248 247 247 249 249 250
256 254 253 253 253 254 255 256 257 257 258 258 258 260 258 256 256 255 255 255 255 255 255 255 257 257 257 257 257 256 257 258 259 260 259 257 254 251 249 249 249 250 251 251
256 254 254 253 252 252 253 254 255 256 256 259 259 259 259 259 257 256 255 254 254 253 253 254 256 257 257 258 257 256 257 258 259 260 259 259 256 253 251 250 250 250 251 251
258 255 253 252 251 252 252 253 254 256 258 259 259 259 259 259 258 257 256 255 254 253 253 253 255 256 256 256 256 256 257 258 259 260 260 259 257 255 253 252 251 252 252 253
259 257 254 251 250 251 250 250 252 255 257 259 259 259 258 258 258 258 257 256 254 254 253 253 254 255 255 255 255 255 256 258 259 259 259 259 257 255 254 253 252 253 254 254
257 257 254 251 250 250 251 251 250 251 254 257 258 258 258 258 258 259 259 258 256 255 254 254 253 254 254 255 255 255 256 257 259 259 259 258 257 256 255 252 252 254 255 255
257 257 255 252 249 249 249 248 248 250 252 255 257 257 258 258 259 259 259 258 257 256 254 254 253 253 253 253 254 254 255 256 256 257 258 258 257 255 256 254 253 254 255 256
256 256 255 252 250 250 250 249 248 250 252 254 257 256 257 258 259 259 259 258 257 255 254 254 254 254 253 253 254 254 254 255 256 256 257 258 256 255 257 256 254 255 256 257
256 256 255 252 251 250 251 249 249 250 252 253 255 256 255 257 258 258 258 257 256 255 254 254 254 254 253 253 254 254 254 255 255 256 256 257 256 255 257 256 256 257 257 258
257 256 255 254 253 252 251 251 250 250 251 253 255 255 254 255 256 256 256 255 255 255 253 252 253 254 254 254 254 255 255 256 256 256 257 256 255 256 257 257 258 259 260 260
256 255 254 254 253 251 250 249 250 250 251 252 252 253 251 253 254 254 255 255 255 254 253 253 253 254 254 255 255 255 255 256 256 256 256 257 256 257 257 257 258 259 260 261
255 255 254 254 254 252 250 249 250 251 251 253 253 252 251 251 252 253 253 253 253 253 253 254 254 255 255 255 255 255 255 255 255 256 256 257 257 257 257 258 259 260 262 263
256 254 253 254 254 253 252 252 251 252 252 253 253 252 250 250 251 253 253 253 253 253 254 254 254 255 255 255 256 256 256 256 256 255 256 256 256 257 259 260 261 262 264 264
258 257 256 255 254 255 257 255 254 254 254 253 253 251 250 250 250 252 252 253 253 253 254 255 255 254 255 256 256 256 256 257 256 256 256 256 256 257 259 260 262 264 266 266
258 257 256 255 255 256 257 258 257 256 255 254 254 252 251 250 251 252 253 253 253 253 254 257 257 256 256 256 257 257 257 258 257 257 256 256 257 257 258 260 263 264 266 265
258 256 255 254 253 255 257 257 258 258 256 255 254 254 253 252 252 251 252 253 254 254 255 257 258 257 257 256 257 258 258 258 258 258 258 258 259 259 260 261 263 264 266 266
259 257 256 255 254 256 258 257 256 256 255 255 254 255 254 253 253 252 252 254 256 256 257 258 259 258 257 257 258 258 258 258 258 258 259 260 260 260 261 262 263 264 266 266
258 258 257 255 254 255 257 256 255 255 254 255 255 255 254 254 254 253 253 254 256 258 258 260 260 259 258 257 258 258 258 258 258 259 259 261 261 261 261 262 264 265 266 266
258 257 257 254 256 257 256 257 257 255 253 253 254 255 255 255 254 255 255 256 258 260 260 260 261 260 259 258 258 259 260 260 259 260 260 260 261 261 262 263 263 264 264 264
257 256 257 257 256 256 258 258 257 254 252 253 253 254 255 255 255 256 257 258 259 259 260 260 261 260 260 259 259 259 260 260 260 260 260 261 261 261 262 262 262 262 262 262
257 254 255 255 255 255 254 256 256 255 253 253 253 254 255 256 257 257 257 257 258 259 259 260 261 261 260 260 260 260 260 260 260 260 260 261 262 262 262 262 262 262 262 262
257 257 255 253 252 254 255 256 256 255 254 255 254 254 255 256 257 258 258 259 259 258 258 258 259 260 260 260 261 259 260 261 261 261 261 261 261 261 262 261 261 262 262 263
Height
5684 5686 5688 5691 5692 5694 5695 5696 5699 5701 5702 5703 5704 5707 5710 5711 5713 5715 5717 5719 5720 5722 5723 5723 5724 5725 5727 5728 5729 5731 5732 5734 5735 5737 5739 5741 5743 5745 5748 5751 5754 5757 5760 5764
5673 5676 5681 5681 5682 5683 5685 5687 5690 5691 5692 5693 5695 5697 5700 5702 5704 5707 5709 5711 5712 5714 5715 5716 5717 5718 5720 5721 5722 5724 5726 5727 5728 5730 5731 5733 5735 5738 5740 5743 5746 5749 5753 5756
5662 5668 5670 5670 5671 5673 5675 5678 5681 5681 5682 5683 5685 5687 5691 5693 5695 5698 5700 5702 5704 5706 5707 5708 5709 5711 5712 5714 5715 5717 5719 5720 5721 5722 5724 5726 5728 5730 5733 5736 5738 5742 5745 5748
5651 5656 5658 5659 5661 5663 5666 5669 5670 5671 5671 5673 5675 5676 5683 5684 5686 5689 5692 5693 5695 5697 5699 5700 5701 5703 5705 5706 5708 5709 5711 5712 5714 5715 5716 5718 5721 5723 5726 5729 5731 5734 5737 5740
5640 5645 5646 5648 5652 5653 5656 5658 5659 5660 5660 5662 5665 5665 5672 5675 5677 5680 5683 5684 5686 5688 5690 5691 5693 5695 5696 5698 5700 5702 5703 5705 5706 5707 5709 5710 5713 5716 5718 5720 5723 5726 5729 5731
5629 5632 5634 5637 5641 5642 5644 5646 5647 5648 5648 5650 5657 5656 5660 5666 5669 5672 5674 5675 5677 5679 5681 5683 5684 5686 5688 5690 5692 5693 5695 5697 5698 5699 5701 5702 5705 5707 5710 5712 5715 5717 5720 5723
5616 5619 5622 5625 5628 5630 5632 5635 5636 5636 5636 5641 5647 5645 5651 5657 5659 5662 5664 5665 5667 5669 5671 5673 5675 5677 5679 5681 5683 5685 5687 5689 5690 5691 5693 5694 5697 5699 5701 5703 5706 5708 5711 5714
5603 5607 5610 5612 5615 5619 5621 5624 5626 5626 5627 5631 5634 5635 5644 5647 5649 5651 5653 5655 5657 5659 5661 5663 5666 5668 5670 5671 5673 5676 5678 5680 5681 5683 5685 5686 5688 5690 5693 5694 5697 5699 5702 5704
5591 5594 5598 5600 5603 5607 5609 5611 5615 5616 5616 5619 5621 5626 5633 5637 5638 5641 5643 5645 5647 5649 5651 5653 5655 5657 5660 5661 5664 5666 5668 5670 5672 5673 5675 5677 5679 5681 5683 5685 5687 5690 5692 5694
5579 5581 5585 5587 5591 5594 5598 5601 5603 5604 5605 5606 5610 5616 5623 5627 5628 5630 5633 5635 5637 5638 5640 5643 5645 5647 5649 5651 5653 5656 5658 5660 5662 5663 5665 5667 5668 5671 5673 5675 5677 5679 5681 5683
5568 5570 5573 5576 5579 5583 5587 5589 5591 5593 5594 5596 5599 5607 5612 5616 5618 5620 5622 5624 5626 5628 5630 5632 5634 5636 5639 5641 5643 5645 5648 5650 5651 5653 5655 5657 5658 5660 5662 5665 5667 5669 5671 5672
5556 5558 5561 5565 5569 5571 5574 5577 5580 5582 5584 5585 5588 5597 5601 5605 5607 5609 5611 5613 5615 5617 5619 5621 5623 5625 5628 5630 5632 5635 5637 5639 5641 5643 5644 5646 5648 5650 5652 5654 5656 5658 5660 5661
5545 5547 5550 5553 5559 5561 5563 5565 5568 5570 5573 5574 5577 5586 5590 5593 5595 5597 5600 5602 5604 5606 5608 5610 5612 5614 5617 5619 5622 5624 5626 5628 5630 5632 5634 5636 5637 5640 5642 5643 5645 5647 5648 5650
5534 5536 5540 5543 5546 5548 5551 5554 5557 5559 5560 5563 5567 5574 5580 5581 5583 5586 5588 5590 5593 5595 5597 5599 5601 5603 5606 5608 5611 5613 5615 5617 5619 5621 5623 5625 5627 5629 5630 5632 5633 5635 5637 5638
5522 5525 5528 5531 5535 5537 5539 5543 5546 5547 5549 5553 5558 5562 5568 5570 5572 5575 5577 5579 5581 5584 5586 5589 5591 5593 5595 5597 5599 5602 5604 5606 5608 5610 5612 5614 5616 5618 5619 5621 5622 5623 5625 5626
5512 5514 5517 5520 5524 5525 5528 5532 5535 5537 5540 5542 5546 5551 5557 5558 5560 5562 5565 5567 5570 5573 5575 5578 5580 5582 5584 5586 5588 5590 5593 5595 5597 5599 5601 5603 5604 5606 5608 5609 5611 5612 5613 5613
5503 5505 5507 5509 5513 5513 5517 5524 5526 5527 5530 5533 5535 5541 5544 5546 5548 5551 5554 5556 5559 5562 5565 5567 5569 5571 5573 5575 5577 5579 5581 5583 5585 5587 5589 5591 5593 5595 5597 5598 5599 5600 5601 5601
5494 5496 5497 5499 5502 5503 5511 5514 5515 5517 5520 5523 5525 5529 5532 5534 5537 5540 5543 5546 5548 5550 5553 5555 5557 5560 5562 5564 5565 5567 5569 5571 5573 5575 5577 5579 5581 5583 5585 5586 5587 5588 5588 5589
5486 5487 5488 5489 5491 5493 5501 5504 5505 5507 5510 5513 5515 5517 5520 5523 5526 5530 5532 5534 5537 5539 5542 5544 5546 5548 5550 5552 5554 5556 5557 5559 5561 5563 5565 5567 5569 5571 5572 5574 5575 5576 5576 5577
5478 5479 5480 5481 5482 5485 5492 5495 5495 5497 5500 5503 5504 5506 5509 5512 5516 5520 5522 5524 5526 5528 5531 5533 5535 5537 5539 5540 5542 5544 5546 5548 5549 5551 5553 5554 5556 5558 5560 5561 5562 5563 5563 5564
5470 5471 5472 5473 5474 5477 5483 5485 5487 5490 5492 5494 5495 5496 5498 5501 5505 5509 5511 5513 5515 5517 5519 5521 5523 5525 5527 5529 5531 5533 5534 5536 5538 5540 5541 5542 5544 5545 5547 5548 5549 5550 5551 5552
5462 5463 5465 5466 5467 5473 5474 5476 5478 5480 5482 5483 5485 5487 5489 5491 5494 5497 5500 5502 5504 5506 5508 5510 5511 5513 5515 5517 5519 5521 5523 5524 5526 5528 5529 5530 5531 5533 5534 5535 5536 5537 5538 5539
5455 5457 5458 5460 5463 5464 5466 5467 5469 5471 5473 5474 5476 5478 5480 5482 5484 5487 5489 5492 5494 5496 5497 5499 5500 5502 5504 5505 5507 5509 5511 5512 5514 5516 5517 5518 5519 5520 5521 5523 5524 5525 5526 5527
5449 5450 5451 5452 5454 5456 5458 5459 5461 5462 5464 5466 5467 5469 5471 5473 5475 5477 5479 5481 5483 5485 5486 5488 5489 5490 5492 5494 5496 5497 5499 5500 5502 5503 5505 5506 5507 5508 5509 5510 5511 5512 5514 5515
5443 5444 5445 5446 5448 5449 5450 5452 5453 5454 5456 5457 5459 5461 5462 5464 5466 5468 5469 5471 5473 5474 5475 5477 5478 5480 5481 5483 5484 5486 5487 5489 5490 5491 5493 5494 5495 5496 5497 5498 5499 5500 5501 5502
5437 5438 5439 5440 5441 5442 5443 5444 5445 5447 5448 5449 5451 5453 5454 5455 5457 5459 5460 5462 5463 5464 5465 5467 5468 5469 5471 5472 5473 5475 5476 5477 5479 5480 5481 5482 5484 5485 5485 5486 5488 5488 5489 5489